Wetbulb
65.14 63.78 62.59 61.90 51.29 50.28 48.01 54.30 58.15 57.56 58.56 60.39 67.34 65.88 64.68 66.38 62.95 57.87 69.94 68.32 73.81 74.35 75.40 76.30 77.39 77.03 76.48 76.38 76.33 76.30 76.15 76.63 77.01 77.11 77.18 77.08 76.88 76.61 76.56 76.28 76.10 75.78 75.71 75.49 75.45 75.35 75.53 75.73 75.90
60.97 60.88 57.63 55.23 47.35 43.10 47.42 56.85 55.95 59.08 60.34 65.82 67.29 66.51 65.26 64.91 69.15 67.52 66.55 70.08 74.46 74.17 74.95 76.02 77.41 77.21 76.55 76.31 76.58 76.25 76.18 76.05 75.78 75.80 75.90 76.03 76.00 75.95 75.78 75.85 75.54 75.23 74.90 75.01 75.15 75.43 75.61 75.80 76.10
63.20 61.23 52.37 49.41 46.34 43.80 49.29 56.96 56.79 60.11 62.15 65.78 64.83 67.28 65.09 63.87 68.89 68.20 72.46 72.22 74.56 74.45 75.75 76.03 77.31 77.11 76.98 76.56 76.88 76.55 76.50 76.33 76.20 75.83 75.50 75.14 74.96 74.73 74.71 74.97 75.12 74.73 74.91 75.15 75.44 75.73 76.27 76.25 76.25
55.90 55.49 54.06 47.32 45.63 54.15 56.30 58.62 57.45 58.56 59.37 63.71 65.25 63.61 68.39 69.54 69.63 73.32 74.68 74.62 73.40 74.33 76.00 77.15 77.41 77.11 77.01 76.78 76.93 76.65 76.60 76.48 76.36 76.20 75.85 75.67 75.47 75.20 75.12 75.00 74.82 74.34 74.14 74.59 74.90 76.05 76.23 76.58 76.76
53.30 51.77 45.38 46.69 50.76 54.43 58.58 59.96 58.12 57.04 57.03 61.44 65.77 63.41 64.76 68.80 72.71 73.32 73.16 73.24 72.91 73.90 75.49 76.59 77.28 77.01 77.06 76.88 76.73 76.68 76.43 76.15 76.03 76.03 75.92 75.82 75.80 75.73 75.58 75.58 75.65 75.25 75.21 75.10 75.08 75.80 75.85 76.22 76.72
48.81 50.16 43.59 43.40 49.70 56.08 57.99 59.84 58.92 58.90 58.72 62.42 61.48 64.71 64.90 68.99 69.04 71.48 72.02 71.40 73.31 72.90 74.05 74.18 76.51 76.83 76.67 76.75 76.47 76.07 75.63 74.82 73.23 72.29 73.03 73.67 74.66 75.32 75.78 75.90 75.95 76.00 76.28 76.03 76.20 76.30 76.00 75.62 75.62
46.85 45.76 44.07 46.86 51.01 54.10 58.05 60.40 55.88 56.45 55.82 58.88 60.89 63.24 65.16 69.66 69.46 71.89 69.32 68.32 73.15 72.88 73.26 74.13 75.35 75.60 75.68 74.85 74.02 73.66 73.12 71.73 70.72 71.50 72.60 73.03 71.81 72.93 73.78 75.08 75.45 75.80 75.75 75.65 75.90 75.89 75.89 75.86 75.78
49.33 48.44 46.18 48.98 49.88 52.49 58.41 60.07 59.00 56.63 53.78 63.56 65.70 61.40 61.60 68.64 70.40 71.07 68.74 68.56 72.01 72.70 72.66 71.68 68.86 66.46 65.87 67.76 72.75 72.31 72.06 71.65 71.13 72.11 71.66 70.97 70.47 71.75 72.02 71.19 73.24 73.68 74.64 74.75 74.78 74.73 74.83 75.09 75.31
52.25 45.45 45.69 47.82 50.81 54.75 59.52 57.84 59.30 60.17 57.00 64.54 65.66 65.07 66.96 68.00 65.29 69.30 69.65 70.61 71.76 71.44 68.54 65.84 63.29 60.90 62.47 65.09 69.84 72.30 72.98 72.21 71.32 69.33 70.88 66.19 64.11 63.95 65.02 69.98 70.88 71.20 71.45 71.73 73.11 73.26 73.61 73.82 74.48
48.12 44.09 46.53 51.35 52.51 50.68 58.41 56.98 57.00 56.07 60.06 62.57 63.68 66.06 66.96 64.61 63.25 64.27 63.95 62.81 61.40 61.61 62.88 63.43 63.04 62.76 60.98 66.21 64.79 63.42 65.08 63.57 65.04 64.34 63.84 63.87 62.97 65.61 66.46 67.50 69.66 69.50 70.54 70.01 70.12 69.82 69.53 67.60 67.88
48.74 46.32 50.76 52.15 52.25 51.87 57.40 56.20 57.87 55.06 52.02 61.56 61.30 61.29 62.52 62.46 61.67 61.63 61.87 60.48 60.34 61.15 62.90 63.39 63.50 62.98 61.87 61.81 61.45 61.33 60.89 61.35 62.55 63.80 63.06 62.61 62.26 62.80 61.94 61.70 61.80 62.07 66.12 62.87 63.75 62.94 63.13 63.24 63.78
45.20 50.04 51.80 49.91 50.56 50.82 51.30 58.00 53.89 51.88 52.26 62.72 62.60 61.53 61.13 60.90 59.86 59.91 60.14 60.94 61.61 62.32 62.84 63.61 63.80 63.37 62.00 62.40 61.83 60.69 59.66 59.91 60.39 62.78 62.10 61.81 60.48 61.09 60.83 60.38 60.22 60.85 60.54 59.84 59.57 60.26 61.72 62.11 63.23
47.15 48.97 50.31 50.14 50.15 48.87 52.06 52.54 51.73 50.60 55.46 61.50 62.24 61.54 60.28 58.96 60.33 61.67 62.43 62.66 62.51 62.33 63.28 63.61 64.57 63.17 62.89 61.50 61.53 61.02 59.10 59.76 60.50 60.49 60.95 61.56 59.77 58.77 60.90 58.79 59.92 58.47 60.03 58.68 57.94 58.26 59.97 59.67 61.02
50.35 49.63 49.39 48.52 47.97 49.00 48.68 49.62 52.00 52.19 54.16 58.60 59.73 59.36 58.79 60.65 60.94 61.24 61.97 61.74 62.36 63.11 63.21 63.63 63.58 64.32 61.56 62.10 59.61 60.72 58.49 58.93 59.99 59.43 60.67 61.09 59.22 58.37 59.10 57.98 58.77 58.32 59.00 58.46 57.57 58.28 59.08 57.63 59.02
50.57 46.69 48.52 48.54 48.31 48.83 50.16 47.92 49.82 53.42 53.78 54.57 56.27 56.64 59.32 61.29 61.83 61.49 62.27 62.26 62.49 62.72 63.11 62.84 62.89 62.16 60.44 59.99 61.36 60.25 58.26 59.36 59.34 58.67 60.81 60.75 59.29 59.30 59.77 58.49 57.66 58.11 59.07 58.11 57.25 58.24 58.59 57.89 58.07
46.44 45.92 41.64 46.59 49.16 49.13 48.58 42.32 49.67 53.13 52.00 51.24 54.15 54.96 59.02 60.48 61.00 62.26 63.21 62.55 62.64 62.10 61.62 61.95 62.84 60.48 60.56 58.92 60.87 61.02 61.06 60.20 59.13 59.48 59.57 60.74 60.54 59.80 58.99 58.23 58.09 58.73 59.38 57.05 56.79 56.13 56.65 56.85 56.73
44.33 39.27 41.08 44.47 48.17 47.96 46.12 43.31 50.93 51.99 51.08 49.59 50.28 52.47 57.08 59.39 61.04 62.26 63.26 63.31 63.18 62.57 61.82 60.25 60.49 59.88 60.87 60.65 60.75 58.81 58.95 58.98 58.39 58.29 57.78 59.49 60.22 59.02 59.22 59.04 58.76 58.89 56.00 56.17 55.36 55.61 55.33 55.52 55.97
40.31 40.30 42.56 45.03 47.35 48.56 44.48 45.25 50.95 52.61 52.05 51.78 51.22 51.68 56.82 59.58 60.02 62.13 63.27 63.73 63.12 62.02 60.83 60.65 60.46 59.90 60.53 58.87 58.19 57.90 57.31 57.66 57.54 57.26 57.82 57.93 57.36 59.45 56.76 56.00 56.34 55.81 55.10 53.65 53.16 53.19 54.99 55.08 55.32
46.17 44.07 43.78 47.90 49.81 47.83 46.17 45.21 50.09 52.24 52.06 50.95 50.79 51.23 54.38 59.03 60.78 62.66 63.25 63.89 62.80 61.15 60.46 60.06 59.49 59.39 59.45 57.57 56.63 56.23 55.79 56.14 56.28 57.03 56.79 56.86 57.34 57.79 56.04 55.08 54.73 54.71 53.46 53.39 54.15 53.77 53.39 52.28 52.82
44.99 43.03 42.50 46.63 50.03 47.39 46.72 46.15 48.32 51.85 52.13 52.26 52.16 51.40 54.85 58.46 59.65 61.23 62.13 62.03 61.11 59.83 58.95 59.51 59.78 59.39 57.90 56.91 58.00 57.21 54.72 54.98 55.70 54.99 55.10 56.02 56.78 57.67 56.35 54.99 54.52 54.34 52.61 51.79 51.58 52.03 52.13 52.30 51.58
44.13 42.20 44.89 44.70 49.41 48.75 46.70 44.17 46.98 50.08 51.64 53.25 52.72 53.20 58.15 58.37 58.60 59.85 60.82 60.47 60.30 58.34 58.72 58.87 58.81 59.03 58.00 56.84 55.93 54.66 54.13 52.97 52.25 52.49 52.84 54.45 56.53 56.28 54.73 54.31 53.90 54.06 53.87 51.62 51.55 51.89 50.82 50.12 51.54
43.04 48.99 48.82 47.90 44.37 38.44 46.09 35.46 42.85 49.15 49.81 52.27 52.06 52.70 57.63 58.55 59.52 60.19 60.24 58.34 58.12 58.85 58.62 58.41 58.35 58.26 57.90 56.15 54.40 53.51 51.61 50.24 51.40 51.41 51.68 53.55 54.88 53.57 54.40 53.69 53.29 52.24 51.85 50.83 51.53 53.51 52.04 52.08 51.00
46.71 50.04 47.39 46.57 42.40 40.83 42.49 38.41 42.68 46.99 45.80 50.11 52.80 55.31 57.92 59.02 58.24 58.55 58.05 58.42 57.88 57.01 57.13 57.39 57.56 57.05 56.77 56.01 54.62 53.02 51.70 51.74 52.06 50.81 51.63 50.70 50.95 52.52 53.72 53.00 52.40 52.18 52.27 51.90 52.46 53.32 53.46 53.75 52.22
51.22 47.28 45.98 44.37 39.90 34.19 41.47 42.39 40.76 45.16 47.52 50.61 53.57 55.18 56.28 57.17 57.62 57.72 58.49 57.59 56.16 56.45 55.36 57.34 57.11 57.44 56.82 55.62 54.46 53.16 52.03 51.42 50.60 50.60 48.68 49.36 50.08 50.43 50.67 52.23 51.22 51.45 52.48 52.89 53.51 53.36 52.49 51.87 52.88
48.18 41.76 35.86 34.83 34.70 36.00 45.67 43.03 43.42 48.90 51.42 52.35 53.07 55.17 56.59 57.31 56.69 55.40 53.16 54.57 53.55 53.90 53.92 55.29 55.30 54.96 53.78 54.16 55.21 52.54 51.88 50.59 49.14 48.87 48.93 48.88 48.56 48.30 49.13 50.67 50.20 50.92 53.19 51.88 51.79 50.41 50.25 50.96 52.01
45.51 42.34 36.77 30.42 32.66 36.02 46.32 38.46 41.88 49.91 51.12 51.63 52.38 54.65 55.46 54.60 53.29 54.03 52.16 51.33 53.43 53.60 53.40 54.93 54.27 54.33 54.27 52.21 52.68 52.35 51.29 50.62 49.64 49.47 49.28 49.16 48.62 49.00 50.36 49.62 50.28 50.48 52.21 50.14 51.34 49.54 48.66 51.08 52.34
44.95 40.53 44.92 39.76 40.28 35.18 39.22 45.03 49.02 51.06 51.06 51.58 52.40 52.40 50.91 51.26 52.12 51.99 53.08 54.33 54.47 53.34 52.92 53.14 52.98 52.41 53.45 53.10 51.98 51.08 51.86 50.13 49.68 49.74 49.49 48.89 49.07 50.90 49.83 49.28 49.64 49.89 50.33 48.56 48.47 48.09 49.15 50.18 50.61
46.64 47.42 38.74 39.17 31.01 30.33 37.68 40.99 42.62 46.42 46.46 48.29 47.62 47.82 48.75 49.33 49.49 50.42 50.93 51.66 50.80 50.08 51.74 52.19 52.61 50.95 51.56 50.70 50.34 50.20 49.62 50.04 49.83 49.27 48.38 48.63 48.81 48.84 48.47 50.07 50.27 49.08 49.58 48.58 48.85 48.45 48.84 48.55 48.84
45.65 44.46 44.93 44.03 39.91 32.65 31.69 36.86 46.58 45.19 46.33 47.46 47.95 48.07 47.67 47.81 47.99 49.67 50.11 49.90 50.07 50.86 50.37 49.82 49.25 49.06 48.25 48.37 48.23 49.02 49.14 49.05 49.02 48.00 48.14 48.47 47.86 47.32 47.76 49.39 47.02 48.15 47.94 48.19 46.89 47.25 48.21 47.83 47.72
48.75 45.20 43.88 36.16 35.99 38.24 35.89 34.83 47.33 46.65 47.52 47.74 47.38 49.15 48.70 48.15 48.26 48.23 48.38 48.69 47.11 46.73 47.17 47.33 48.81 47.85 47.52 47.63 47.55 47.99 48.30 47.93 47.41 47.11 47.30 47.60 46.47 47.25 47.21 47.00 47.92 48.23 48.90 48.50 48.35 48.00 48.16 48.16 47.39
MSLP
1010.43 1010.06 1010.28 1010.31 1011.04 1011.38 1012.39 1012.88 1013.34 1013.36 1014.26 1012.01 1007.29 1007.25 1008.58 1009.32 1010.26 1012.60 1012.45 1013.21 1013.43 1013.58 1014.03 1013.94 1014.06 1014.10 1014.27 1014.49 1014.70 1014.64 1014.63 1014.76 1015.02 1015.25 1015.31 1015.36 1015.49 1015.51 1015.64 1015.71 1015.85 1015.89 1015.88 1015.88 1015.88 1015.89 1015.90 1015.91 1015.87
1010.06 1009.69 1009.89 1010.20 1011.06 1011.69 1012.76 1011.77 1013.05 1012.19 1013.11 1010.24 1008.16 1008.33 1008.45 1010.61 1011.19 1012.48 1013.18 1013.46 1012.76 1013.61 1014.17 1014.29 1014.54 1014.60 1014.87 1014.91 1015.11 1015.12 1015.03 1015.07 1015.29 1015.37 1015.54 1015.61 1015.68 1015.71 1015.70 1015.81 1015.86 1015.91 1015.88 1015.82 1015.83 1015.89 1015.93 1015.94 1015.90
1010.00 1009.80 1010.47 1010.24 1010.88 1011.13 1011.53 1011.92 1011.63 1009.83 1009.43 1007.61 1008.35 1007.99 1008.53 1010.46 1011.60 1012.21 1012.40 1013.02 1013.21 1013.96 1014.36 1014.61 1014.66 1014.89 1015.04 1015.34 1015.46 1015.39 1015.26 1015.30 1015.49 1015.63 1015.65 1015.76 1015.83 1015.87 1015.92 1015.89 1015.91 1015.91 1015.91 1015.87 1015.88 1015.83 1015.82 1015.85 1015.83
1009.76 1010.06 1010.08 1010.37 1011.31 1011.67 1011.35 1010.46 1011.29 1010.34 1009.72 1009.37 1008.54 1009.21 1009.76 1010.07 1010.85 1011.73 1012.56 1013.10 1013.42 1014.10 1014.44 1014.66 1014.79 1015.11 1015.41 1015.58 1015.69 1015.62 1015.49 1015.61 1015.73 1015.68 1015.77 1015.85 1015.91 1015.91 1015.89 1015.92 1015.87 1015.94 1015.84 1015.84 1015.81 1015.77 1015.71 1015.69 1015.65
1009.55 1010.13 1010.35 1010.47 1010.44 1010.87 1012.41 1012.54 1010.67 1010.40 1009.91 1009.70 1009.16 1010.29 1010.50 1010.53 1011.21 1011.97 1012.83 1013.47 1014.09 1014.92 1014.90 1014.87 1014.99 1015.05 1015.37 1015.83 1015.97 1015.84 1015.81 1015.90 1015.93 1015.91 1015.93 1015.93 1015.89 1015.93 1015.90 1015.96 1015.90 1015.95 1015.84 1015.74 1015.64 1015.50 1015.39 1015.30 1015.26
1010.09 1009.91 1010.52 1010.71 1010.99 1011.09 1011.76 1012.31 1010.18 1008.87 1009.49 1010.42 1010.04 1009.75 1010.62 1011.09 1011.71 1013.02 1013.93 1014.16 1014.62 1015.39 1015.16 1015.07 1015.19 1015.44 1015.59 1015.71 1015.95 1016.13 1016.21 1016.23 1016.14 1016.06 1016.01 1015.96 1016.01 1015.98 1016.01 1015.95 1015.88 1015.74 1015.66 1015.59 1015.52 1015.37 1015.24 1015.14 1014.94
1010.02 1010.33 1010.23 1009.98 1010.58 1010.50 1010.63 1011.49 1010.92 1009.60 1009.58 1010.49 1009.76 1010.02 1012.21 1012.09 1011.88 1012.60 1013.59 1013.85 1014.35 1014.47 1015.19 1015.04 1015.36 1015.48 1015.68 1015.87 1015.99 1016.28 1016.36 1016.33 1016.22 1016.20 1016.06 1016.01 1016.06 1016.02 1015.94 1015.89 1015.79 1015.60 1015.55 1015.49 1015.26 1014.98 1014.88 1014.80 1014.67
1008.94 1009.76 1009.77 1009.15 1009.34 1008.86 1010.18 1010.57 1009.81 1008.99 1008.54 1008.98 1009.16 1009.89 1011.68 1011.21 1011.74 1012.41 1013.53 1013.95 1014.55 1015.16 1014.48 1015.06 1015.69 1015.77 1015.70 1016.03 1016.14 1016.31 1016.38 1016.38 1016.41 1016.32 1016.34 1016.28 1016.20 1016.19 1016.09 1015.95 1015.93 1015.77 1015.55 1015.26 1014.96 1014.68 1014.48 1014.31 1014.20
1008.27 1009.28 1009.12 1008.27 1007.86 1008.66 1008.85 1009.70 1009.40 1007.74 1007.95 1008.28 1008.85 1008.86 1009.79 1010.48 1010.96 1012.37 1013.71 1014.45 1014.40 1014.80 1015.38 1015.88 1016.06 1015.98 1015.72 1016.12 1016.35 1016.66 1016.60 1016.70 1016.73 1016.71 1016.73 1016.83 1016.85 1016.67 1016.56 1016.34 1016.18 1015.94 1015.57 1015.26 1014.96 1014.67 1014.33 1014.33 1014.08
1008.23 1008.66 1007.75 1007.11 1006.93 1006.57 1008.40 1007.73 1007.47 1007.50 1007.80 1008.52 1008.73 1008.84 1009.31 1009.94 1010.51 1011.57 1012.50 1013.41 1014.14 1015.19 1015.85 1016.21 1016.37 1016.11 1016.12 1016.06 1016.85 1017.02 1016.74 1016.93 1017.05 1017.06 1017.15 1017.16 1017.21 1017.16 1017.08 1016.87 1016.63 1016.31 1015.83 1015.48 1015.28 1014.89 1014.67 1014.40 1014.11
1007.58 1007.87 1006.78 1006.29 1005.90 1005.76 1006.95 1006.99 1006.58 1006.80 1007.69 1008.27 1008.69 1009.18 1009.50 1009.69 1010.45 1011.67 1012.58 1013.39 1014.13 1014.89 1015.65 1016.15 1016.34 1016.42 1016.56 1016.88 1017.06 1016.99 1017.06 1017.07 1017.31 1017.17 1017.28 1017.35 1017.46 1017.49 1017.31 1017.17 1017.05 1016.79 1016.14 1016.11 1015.69 1015.33 1014.93 1014.60 1014.21
1007.61 1006.47 1005.92 1005.77 1005.35 1005.54 1006.08 1006.38 1006.91 1006.86 1007.00 1007.72 1008.43 1008.97 1009.56 1010.10 1010.90 1011.83 1013.01 1013.90 1014.69 1015.45 1016.32 1016.91 1016.96 1016.86 1016.90 1016.89 1017.13 1017.23 1017.25 1017.21 1017.43 1017.31 1017.34 1017.42 1017.67 1017.69 1017.66 1017.53 1017.31 1017.00 1016.67 1016.43 1016.14 1015.77 1015.23 1014.86 1014.38
1006.46 1005.95 1005.44 1005.19 1005.02 1005.61 1005.69 1006.66 1007.06 1007.16 1007.10 1007.52 1008.29 1008.90 1009.62 1010.76 1011.46 1012.60 1013.35 1014.30 1015.04 1015.86 1016.66 1017.30 1017.48 1017.65 1017.63 1017.67 1017.66 1017.55 1017.49 1017.49 1017.33 1017.23 1017.19 1017.32 1017.69 1017.82 1017.74 1017.55 1017.37 1017.17 1016.89 1016.57 1016.22 1015.74 1015.39 1014.95 1014.50
1005.62 1005.47 1005.34 1005.12 1005.27 1005.65 1005.91 1006.61 1006.75 1007.47 1007.17 1007.75 1008.27 1009.05 1009.68 1010.97 1011.63 1012.73 1013.70 1014.75 1015.46 1016.29 1017.09 1017.62 1017.99 1018.09 1018.14 1018.04 1017.85 1017.82 1017.44 1017.44 1017.44 1017.32 1017.51 1017.56 1017.68 1017.66 1017.59 1017.42 1017.28 1017.09 1016.91 1016.62 1016.35 1015.80 1015.64 1015.16 1014.73
1005.68 1005.95 1005.74 1005.43 1005.56 1005.87 1006.01 1006.86 1007.70 1007.24 1007.18 1007.77 1008.45 1008.95 1010.06 1010.91 1011.70 1012.82 1013.85 1014.88 1015.62 1016.51 1017.23 1017.89 1018.27 1018.40 1018.39 1018.15 1017.90 1017.94 1017.59 1017.57 1017.73 1017.52 1017.65 1017.56 1017.37 1017.34 1017.27 1017.23 1017.19 1016.97 1016.71 1016.52 1016.22 1015.94 1015.60 1015.49 1014.87
1006.52 1006.56 1006.89 1006.00 1005.67 1006.07 1006.35 1007.39 1007.50 1007.47 1007.62 1008.03 1008.39 1009.11 1009.95 1010.69 1011.56 1012.76 1013.76 1014.79 1015.76 1016.60 1017.58 1018.32 1018.45 1018.76 1018.68 1018.33 1018.40 1018.30 1018.19 1018.14 1018.07 1017.94 1017.92 1017.62 1017.30 1017.18 1017.20 1017.21 1017.10 1016.81 1016.80 1016.54 1016.44 1016.29 1015.98 1015.61 1015.06
1007.37 1007.36 1007.09 1006.17 1005.44 1006.14 1006.62 1007.56 1007.57 1007.49 1007.79 1008.21 1008.47 1009.00 1009.78 1010.99 1011.93 1012.82 1013.67 1014.73 1015.70 1016.67 1017.68 1018.45 1018.87 1019.22 1019.23 1018.97 1018.84 1018.69 1018.62 1018.70 1018.58 1018.35 1018.17 1018.08 1017.82 1017.50 1017.56 1017.44 1017.25 1016.95 1016.75 1016.70 1016.57 1016.28 1016.01 1015.52 1015.04
1007.95 1007.75 1007.09 1006.18 1005.23 1005.92 1006.95 1007.34 1007.48 1007.34 1007.60 1008.06 1008.42 1009.00 1009.90 1010.81 1011.89 1012.61 1013.60 1014.67 1015.59 1016.54 1017.47 1018.28 1019.03 1019.47 1019.61 1019.41 1019.30 1019.28 1019.29 1019.25 1018.98 1018.65 1018.72 1018.44 1018.09 1017.85 1017.68 1017.47 1017.22 1016.89 1016.88 1016.70 1016.52 1016.27 1015.88 1015.56 1015.09
1007.35 1007.32 1007.05 1006.13 1005.58 1006.19 1006.63 1007.16 1007.48 1007.50 1007.81 1008.07 1008.57 1008.85 1009.93 1010.67 1011.72 1012.65 1013.56 1014.56 1015.55 1016.47 1017.26 1018.04 1019.03 1019.54 1019.90 1019.95 1020.02 1019.86 1019.96 1019.62 1019.38 1019.35 1018.90 1018.57 1018.46 1018.10 1017.84 1017.64 1017.25 1016.94 1016.85 1016.67 1016.42 1016.12 1015.84 1015.41 1014.97
1007.08 1007.21 1007.23 1006.68 1006.26 1006.79 1007.47 1007.80 1007.68 1008.04 1007.84 1007.75 1008.13 1008.55 1009.72 1011.14 1012.06 1012.94 1013.81 1014.70 1015.49 1016.33 1016.99 1017.87 1018.56 1019.05 1019.66 1019.82 1019.86 1019.83 1019.74 1019.56 1019.44 1019.22 1018.95 1018.78 1018.55 1018.29 1017.95 1017.82 1017.70 1017.37 1016.94 1016.68 1016.54 1016.37 1015.95 1015.38 1014.92
1007.20 1007.63 1007.71 1007.85 1007.38 1007.48 1008.08 1008.71 1008.72 1008.08 1008.00 1007.96 1008.09 1008.44 1009.72 1010.93 1012.27 1013.31 1014.13 1014.78 1015.49 1016.26 1016.73 1017.84 1017.96 1018.44 1018.98 1019.31 1019.40 1019.34 1019.20 1019.08 1019.20 1019.16 1018.91 1018.66 1018.39 1018.28 1018.17 1017.94 1017.74 1017.48 1017.23 1016.91 1016.52 1016.25 1015.98 1015.40 1014.88
1007.62 1007.82 1008.10 1008.56 1009.07 1009.37 1009.39 1010.03 1010.12 1009.94 1009.13 1009.22 1009.19 1009.40 1010.27 1011.34 1012.27 1013.24 1014.20 1015.01 1015.78 1016.22 1016.72 1017.14 1017.54 1017.97 1018.57 1019.03 1019.26 1019.28 1019.23 1019.14 1018.85 1018.91 1018.90 1018.64 1018.18 1018.14 1017.99 1017.86 1017.72 1017.54 1017.13 1016.67 1016.27 1015.96 1015.68 1015.30 1014.75
1007.87 1008.23 1008.94 1009.48 1010.12 1010.73 1011.15 1011.68 1012.01 1011.84 1012.39 1011.97 1011.60 1010.13 1011.18 1011.90 1012.76 1013.93 1014.78 1015.40 1015.77 1015.90 1016.37 1016.80 1017.37 1018.09 1018.60 1018.87 1018.98 1019.33 1019.26 1019.03 1018.51 1018.74 1018.96 1018.83 1018.60 1018.21 1017.92 1017.81 1017.72 1017.42 1016.98 1016.51 1016.11 1015.69 1015.34 1014.96 1014.62
1008.05 1008.67 1009.57 1010.36 1011.29 1012.70 1013.42 1013.83 1013.63 1013.94 1013.86 1013.82 1013.72 1011.74 1011.71 1012.73 1013.70 1014.82 1015.49 1015.74 1015.83 1015.87 1016.62 1017.21 1017.77 1018.13 1018.67 1018.42 1018.27 1018.38 1018.85 1018.81 1018.88 1019.07 1019.09 1018.93 1018.65 1018.32 1017.99 1017.79 1017.65 1017.27 1016.87 1016.38 1015.93 1015.57 1015.23 1014.79 1014.31
1008.85 1009.86 1011.32 1012.40 1013.08 1013.40 1012.93 1014.09 1014.45 1014.12 1014.20 1013.55 1013.39 1012.27 1013.14 1014.20 1014.96 1015.77 1016.18 1016.20 1016.86 1017.16 1017.26 1017.51 1018.00 1018.21 1018.20 1018.21 1018.11 1018.25 1018.93 1018.97 1018.99 1019.08 1019.13 1018.96 1018.67 1018.25 1018.00 1017.76 1017.49 1017.21 1016.60 1016.23 1015.87 1015.58 1015.19 1014.75 1014.26
1009.67 1010.58 1011.96 1013.24 1014.20 1014.34 1013.86 1014.33 1014.50 1013.83 1013.56 1013.01 1013.27 1014.05 1014.50 1015.32 1015.70 1015.99 1016.48 1016.71 1016.88 1016.78 1016.79 1017.35 1017.60 1017.64 1017.95 1018.45 1018.76 1018.65 1018.84 1019.05 1019.06 1019.08 1018.89 1018.76 1018.45 1018.11 1017.77 1017.60 1017.23 1016.91 1016.41 1016.28 1015.83 1015.51 1015.09 1014.52 1013.96
1010.13 1010.99 1011.75 1012.96 1013.93 1014.97 1015.12 1015.25 1014.70 1014.15 1013.74 1013.41 1013.70 1014.38 1015.19 1015.79 1015.95 1016.49 1016.39 1016.61 1017.22 1017.59 1017.61 1017.95 1017.98 1018.22 1018.45 1018.74 1018.85 1018.87 1019.07 1019.12 1019.08 1018.86 1018.88 1018.70 1018.30 1017.91 1017.61 1017.35 1017.06 1016.69 1016.33 1016.17 1015.85 1015.41 1014.89 1014.42 1013.86
1010.53 1010.84 1012.21 1013.80 1015.53 1016.20 1015.97 1016.17 1015.80 1015.12 1014.90 1015.12 1015.47 1015.68 1015.91 1016.19 1016.65 1017.09 1017.59 1018.00 1018.45 1018.65 1018.75 1019.01 1019.07 1019.29 1019.34 1019.32 1019.32 1019.36 1019.27 1019.17 1019.03 1018.93 1018.75 1018.48 1018.05 1017.81 1017.60 1017.22 1016.94 1016.65 1016.24 1015.95 1015.65 1015.23 1014.72 1014.25 1013.85
1011.29 1012.11 1013.55 1015.02 1015.75 1016.60 1016.84 1016.40 1015.13 1015.64 1015.55 1015.40 1015.85 1016.38 1016.73 1017.14 1017.37 1017.99 1018.44 1018.90 1019.50 1019.97 1020.39 1020.48 1020.39 1020.24 1020.01 1019.67 1019.51 1019.46 1019.52 1019.49 1018.96 1018.82 1018.40 1018.20 1017.99 1017.78 1017.51 1017.25 1016.92 1016.55 1016.15 1015.79 1015.49 1015.06 1014.59 1014.22 1013.89
1011.78 1012.64 1013.67 1015.03 1016.06 1016.50 1016.88 1016.75 1015.62 1015.82 1015.92 1016.08 1016.69 1016.92 1017.23 1017.75 1018.26 1018.82 1019.43 1020.06 1020.61 1020.97 1021.01 1021.03 1020.82 1020.59 1020.23 1019.84 1019.71 1019.63 1019.48 1019.42 1019.00 1018.59 1018.33 1018.09 1017.90 1017.68 1017.51 1017.11 1016.67 1016.34 1015.92 1015.58 1015.22 1014.92 1014.60 1014.12 1013.87
Wind_Speed
4 7 2 3 6 6 1 7 6 5 6 14 19 18 22 13 5 7 2 3 12 12 6 11 13 13 13 12 11 12 12 12 11 10 10 9 9 8 8 7 5 4 3 3 3 3 4 5 5
3 6 1 3 4 3 4 2 4 14 10 7 21 21 22 21 10 9 5 7 14 12 8 9 12 13 13 13 11 11 12 11 10 10 9 8 8 7 6 5 4 3 2 3 3 5 6 7 7
4 4 3 3 3 4 5 4 4 10 9 11 13 13 11 6 15 12 8 11 16 13 10 10 12 12 13 12 10 10 11 10 9 8 8 7 6 5 5 3 3 3 4 5 6 6 6 7 8
3 4 5 3 6 19 10 10 2 6 13 11 10 14 16 10 8 13 18 18 17 14 10 11 12 12 11 11 10 10 10 9 8 7 6 5 4 2 2 2 2 4 4 6 7 7 8 8 9
1 2 2 4 3 8 10 7 7 9 3 8 16 10 7 6 19 14 17 16 15 12 10 9 12 13 12 11 10 10 9 8 7 7 6 4 3 4 4 4 3 4 6 8 9 9 9 10 10
3 3 4 6 3 12 4 10 5 10 7 10 8 13 8 7 8 20 20 17 11 8 9 9 13 12 11 10 10 9 8 8 7 6 3 3 4 5 6 6 6 8 8 9 10 11 12 13 13
5 1 7 11 7 3 13 10 6 11 10 6 11 11 9 11 10 23 23 17 9 12 10 9 8 11 12 10 10 9 8 6 5 7 11 5 5 7 8 8 8 9 10 10 11 13 14 15 15
4 3 9 12 4 8 10 13 9 10 4 13 17 5 10 19 20 21 21 18 15 12 13 11 6 6 8 6 9 9 8 7 6 15 16 17 16 13 10 14 8 12 11 12 13 14 14 16 16
5 2 9 13 7 18 21 17 13 8 7 11 6 12 13 9 11 23 19 12 13 11 10 6 1 4 7 7 5 4 7 4 7 11 14 9 6 9 11 15 20 19 19 18 15 14 15 14 14
1 2 9 9 3 5 24 15 10 7 16 15 16 8 10 11 12 15 17 15 16 13 10 9 6 7 4 5 5 2 5 6 6 6 7 6 7 7 11 12 17 19 17 15 18 18 15 12 5
8 8 12 9 7 9 15 5 6 8 7 18 17 10 8 7 9 10 13 16 15 13 12 10 8 7 7 5 3 3 4 4 4 7 6 6 5 3 4 4 4 5 12 6 9 9 8 11 9
6 12 11 3 7 8 1 4 8 11 6 18 16 11 8 6 14 17 18 17 16 15 11 9 8 8 8 5 5 4 4 4 3 3 5 5 4 5 4 4 5 5 5 6 5 5 8 11 11
7 6 5 4 7 6 7 8 9 8 11 16 14 12 9 11 18 17 18 16 15 15 12 9 8 7 6 6 4 4 4 4 2 3 4 4 4 4 3 4 5 5 5 5 5 6 6 6 9
3 5 3 2 3 4 4 0 10 4 8 12 11 10 9 17 19 16 17 15 15 14 11 8 8 6 5 4 5 2 4 4 4 3 4 5 3 2 1 3 4 4 3 5 5 9 8 6 5
6 6 7 4 5 5 6 8 6 10 9 11 10 7 11 16 16 17 17 16 15 10 8 9 7 6 5 4 5 3 4 5 4 5 4 3 1 2 0 2 3 4 4 5 6 6 6 7 9
5 6 5 8 9 5 12 8 7 8 9 8 10 8 13 15 15 19 18 16 13 11 10 8 7 7 5 5 5 4 5 4 5 5 3 4 5 3 2 3 3 3 4 4 4 5 5 8 9
5 6 8 11 10 7 8 5 7 8 9 8 8 9 10 12 18 19 18 17 14 11 10 9 8 8 8 7 5 6 7 6 5 5 5 8 8 8 5 5 4 5 4 4 4 4 7 8 9
9 5 9 8 7 9 7 8 8 10 9 8 6 8 13 19 19 19 20 17 15 13 11 10 7 7 7 5 6 5 5 5 5 5 6 10 8 6 5 5 5 5 3 4 4 6 5 4 6
7 5 8 7 6 6 7 5 8 10 7 9 8 8 11 18 17 19 17 16 15 12 12 10 8 5 5 4 3 4 4 4 5 6 11 11 10 11 6 4 5 5 4 4 5 7 5 5 6
8 7 9 3 5 4 6 5 5 7 10 9 10 9 14 16 15 17 16 16 14 10 11 10 9 8 4 2 1 2 1 2 1 4 6 6 11 8 11 9 6 6 5 6 5 5 7 6 4
7 4 6 6 4 4 3 5 7 10 6 8 6 6 19 19 17 15 15 13 13 11 11 9 9 9 6 5 2 0 1 1 1 3 4 3 5 6 6 7 6 8 5 5 5 5 6 9 7
5 8 9 11 9 2 3 6 4 13 11 6 8 8 15 16 14 12 14 9 12 9 10 10 9 9 7 6 3 3 3 2 2 2 3 5 5 6 6 6 5 6 5 6 5 7 6 6 8
5 8 7 6 8 7 11 6 7 12 11 17 15 9 13 14 10 12 10 9 7 8 10 8 8 8 6 5 4 2 1 2 1 2 4 5 5 6 5 6 8 9 7 6 7 7 9 7 7
5 8 8 6 2 4 4 5 6 8 6 6 20 7 9 15 13 10 7 7 7 4 4 7 9 7 5 5 5 3 2 3 5 4 4 4 4 4 5 6 6 9 9 8 8 7 7 7 6
8 4 5 6 6 5 5 6 4 4 11 9 4 5 18 12 9 6 4 3 10 8 7 8 7 4 4 3 2 3 7 5 4 4 3 5 4 3 5 6 5 7 9 6 7 5 6 7 6
6 1 5 2 3 5 3 2 5 1 7 9 12 13 11 8 2 10 11 8 7 7 7 5 3 3 6 6 7 7 6 4 3 2 3 4 3 4 4 6 5 7 6 6 5 4 5 6 5
6 5 3 1 4 4 4 6 9 7 4 8 14 13 10 8 9 7 5 4 8 10 9 9 9 9 8 7 5 6 6 6 4 5 5 4 4 4 5 6 6 6 5 5 6 5 6 6 5
4 4 7 6 4 4 4 3 2 7 8 9 9 9 8 9 9 9 14 13 9 8 9 12 9 6 7 7 6 5 4 5 5 4 6 6 6 5 6 6 6 7 7 6 7 6 7 6 5
5 6 8 3 3 4 2 3 7 7 6 8 8 8 8 9 10 12 12 10 14 14 11 9 9 8 7 6 5 6 6 6 6 4 5 6 5 5 6 5 6 8 8 6 6 6 6 7 6
2 3 2 6 5 1 5 5 2 9 7 9 7 7 7 11 11 11 12 15 13 12 12 13 11 10 7 6 6 5 5 6 6 6 7 6 5 6 6 6 6 8 7 6 6 7 7 6 5
Wind_Direction
281 242 201 331 38 78 19 65 114 116 331 232 77 78 78 60 60 144 6 180 135 115 116 89 81 79 79 75 71 69 71 73 72 68 68 70 70 72 68 68 64 55 42 22 3 336 315 309 314
313 296 127 282 77 10 279 175 3 155 146 292 82 88 72 91 79 121 115 201 118 111 99 88 87 81 77 73 72 74 74 73 71 74 68 66 66 66 70 65 65 47 9 345 328 316 307 304 300
251 216 57 152 190 241 157 291 34 321 40 88 68 63 79 90 132 150 164 158 106 95 87 94 95 93 88 86 80 77 76 77 77 75 74 68 62 61 54 48 27 360 338 322 312 304 299 292 291
317 15 325 75 15 23 357 128 112 308 27 329 104 59 65 94 92 128 141 121 104 102 105 101 94 91 93 89 85 81 78 75 74 73 65 61 58 54 38 345 344 325 314 307 301 297 294 289 281
323 304 323 308 197 111 10 341 129 77 347 27 84 104 103 80 123 131 107 93 91 93 96 95 98 98 96 91 86 82 80 79 68 57 46 29 358 335 322 302 304 292 291 286 284 278 272 269 267
325 110 336 292 56 99 71 269 154 133 191 101 44 136 119 121 103 97 88 87 83 103 124 110 109 103 97 96 93 90 89 81 76 70 41 3 330 320 312 307 300 277 268 270 272 270 269 268 264
202 16 250 276 161 88 132 243 238 166 193 205 174 119 62 323 140 121 123 126 147 131 138 116 117 119 119 122 120 120 121 111 70 36 19 11 330 308 295 289 288 280 274 274 269 267 266 265 263
215 145 289 280 200 179 167 200 239 182 206 143 164 105 139 208 125 125 132 144 158 170 129 126 138 148 131 140 146 143 141 130 68 46 38 23 18 18 358 19 332 338 308 293 283 279 270 262 262
275 329 267 270 320 106 168 196 215 218 127 94 125 112 120 153 112 132 136 153 158 115 93 89 112 188 141 136 162 162 138 105 73 52 46 26 17 15 17 6 8 357 350 348 340 325 313 313 297
157 214 260 274 314 142 159 181 186 146 116 114 112 121 132 131 134 129 129 127 110 109 106 103 109 63 126 117 121 173 81 73 71 67 56 35 27 26 14 9 356 348 342 345 6 2 1 351 324
250 225 256 288 28 19 141 146 167 160 115 133 135 147 150 160 146 121 112 108 107 97 76 54 45 53 66 85 104 59 53 39 72 72 70 59 35 17 14 2 348 333 340 2 3 351 346 337 336
235 242 248 305 47 5 227 173 130 95 134 133 137 152 151 127 103 112 114 109 99 88 83 68 47 41 41 38 40 50 52 25 44 83 77 70 39 16 3 358 338 342 349 358 349 334 332 337 330
211 239 293 86 56 324 11 105 123 93 105 128 141 143 162 99 97 94 99 97 96 89 82 70 56 49 39 39 30 57 38 24 44 70 69 89 61 16 357 349 340 337 345 343 334 332 326 323 325
270 225 246 55 55 312 47 78 97 132 104 120 126 150 150 120 114 108 99 101 95 97 94 87 61 49 39 15 36 53 34 13 15 20 83 87 83 332 275 333 320 336 328 326 323 334 315 309 334
299 8 325 173 190 199 90 338 124 162 140 136 134 160 119 122 120 116 116 109 108 104 102 100 90 52 42 14 1 31 11 19 17 14 83 108 224 346 237 295 308 298 320 335 327 317 331 336 326
2 357 302 270 200 185 107 252 308 153 125 147 157 179 136 139 126 124 118 115 110 103 100 83 66 30 15 7 0 23 24 30 15 14 27 347 332 343 350 301 288 315 352 328 333 327 331 324 320
301 237 249 262 205 153 119 217 160 150 153 181 182 184 144 118 116 122 119 120 119 111 99 81 60 22 351 7 19 24 24 24 1 4 355 353 9 351 2 345 335 358 334 336 333 320 311 313 311
256 245 271 265 212 129 164 209 175 177 164 179 191 191 136 133 137 130 126 123 119 114 108 107 86 31 11 17 16 19 21 6 352 342 17 353 351 11 1 342 341 323 328 322 318 305 301 299 309
278 343 305 19 70 127 202 206 193 186 178 184 197 210 148 141 138 127 126 123 117 114 116 115 102 66 52 20 12 24 13 347 340 13 351 350 1 338 346 338 323 322 338 326 312 308 298 305 297
344 340 313 315 168 74 36 344 327 186 201 189 196 218 132 133 125 130 125 127 132 133 131 122 126 114 104 72 63 96 337 321 11 350 326 354 347 343 344 345 337 330 322 328 335 320 310 306 302
312 325 352 326 106 148 199 304 273 276 187 190 158 91 135 138 131 135 129 140 137 136 132 134 141 139 146 141 135 99 329 14 5 317 330 341 323 333 352 350 352 346 352 318 298 289 294 304 299
6 11 15 356 17 297 65 272 355 348 312 88 73 74 125 135 134 140 140 124 136 144 143 154 158 146 146 145 138 178 175 198 207 266 300 308 330 349 355 345 342 316 303 295 300 304 292 285 298
292 35 356 334 328 8 345 36 305 33 3 3 333 79 117 137 126 111 101 100 126 153 172 159 143 126 133 153 151 157 238 253 273 338 337 323 353 325 340 338 337 318 311 304 299 302 304 297 287
339 350 348 337 326 354 130 71 294 334 172 115 276 237 132 104 93 98 129 174 182 151 80 106 101 122 166 171 168 147 251 306 21 357 344 342 316 316 330 330 324 320 312 311 313 310 309 303 311
3 36 350 351 4 256 135 147 225 67 76 57 347 324 72 65 81 83 99 78 73 78 73 98 104 141 205 207 73 41 44 59 27 348 338 328 297 307 317 317 313 317 312 334 322 321 317 315 310
322 199 155 292 320 276 114 151 251 78 88 75 80 77 73 86 102 61 90 112 119 137 134 129 148 271 24 37 43 53 35 22 14 8 320 295 290 304 295 306 304 312 334 327 322 308 303 303 311
308 332 231 184 297 23 143 353 7 328 41 55 70 76 68 63 61 112 138 79 34 49 50 46 30 57 51 70 48 42 40 38 10 333 314 284 305 300 322 315 313 305 317 314 319 316 316 315 315
262 218 13 0 32 339 352 112 222 60 46 59 54 41 44 46 69 57 68 59 54 45 45 35 37 55 37 48 39 50 26 9 338 323 309 310 309 333 331 315 329 329 321 318 315 312 312 327 334
11 349 44 315 151 177 293 226 150 128 80 54 52 64 57 45 45 65 71 65 53 49 47 44 36 21 12 30 24 23 16 339 320 316 319 321 335 344 315 333 325 314 304 296 308 306 314 327 317
60 15 253 132 280 91 151 278 126 96 86 72 62 55 57 61 62 55 53 61 53 40 31 20 12 3 7 355 26 20 349 324 331 335 328 325 341 331 322 312 299 297 299 302 293 309 313 311 333